Track STARLINK-1119 now! 10-day predictions STARLINK-1119 is classified as:
1 44928U 20001Q 21024.91362886 .00000420 00000-0 47960-4 0 9998 2 44928 53.0002 100.3663 0001040 104.6465 255.4638 15.05584488 58036